Torna al catalogo

STARLINK-11370

AttivoComunicazioniVLEO
NORAD 61584·PAYLOAD·🇺🇸 United States

Lanciato Oct 18, 2024 da Cape Canaveral Space Force Station

Loading…

Prossimi Passaggi (prossime 24 ore)

TLE

AggiornatoSource: CelesTrak SupGP

Epoca: Sep 15, 2026, 03:11 UTC

1 61584C 24187L   26258.13312500  .00008313  00000+0  68442-4 0  2584
2 61584  53.1564  82.5544 0000968  83.3758 215.9282 15.69719192    15

Traccia STARLINK-11370 in tempo reale con AllMySat

Download on the App Store